• In Moldova, Republic
  • List of Countries
  • For 7 days
  • Water Temperature
  • Satellite Maps
  • Weather Map
  • Weather Widgets
  • user-avatar
    Login

    Hourly Weather Mingachevir

    Today, 22 September, Friday

    Time Temperature Precipitation Wind Pressure Humidity
    00:00 +26°C° 0 mm 1 mps 752 mmHg 44%
    01:00 +26°C° 0.1 mm 1 mps 752 mmHg 46%
    02:00 +25°C° 0.1 mm 1 mps 752 mmHg 47%
    03:00 +23°C° 0.1 mm 0 mps 752 mmHg 49%
    04:00 +25°C° 0 mm 1 mps 751 mmHg 49%
    05:00 +24°C° 0 mm 1 mps 751 mmHg 50%
    06:00 +24°C° 0 mm 1 mps 751 mmHg 50%
    07:00 +26°C° 0 mm 1 mps 751 mmHg 45%
    08:00 +28°C° 0 mm 1 mps 751 mmHg 40%
    09:00 +30°C° 0 mm 1 mps 751 mmHg 34%
    10:00 +31°C° 0 mm 2 mps 750 mmHg 31%
    11:00 +32°C° 0 mm 2 mps 750 mmHg 28%
    12:00 +35°C° 0 mm 2 mps 749 mmHg 24%
    13:00 +35°C° 0 mm 2 mps 749 mmHg 24%
    14:00 +36°C° 0 mm 2 mps 749 mmHg 23%
    15:00 +36°C° 0 mm 2 mps 748 mmHg 23%
    16:00 +35°C° 0 mm 2 mps 749 mmHg 25%
    17:00 +32°C° 0 mm 2 mps 749 mmHg 28%
    18:00 +31°C° 0 mm 1 mps 749 mmHg 31%
    19:00 +30°C° 0 mm 2 mps 749 mmHg 34%
    20:00 +29°C° 0 mm 2 mps 750 mmHg 37%
    21:00 +28°C° 0 mm 2 mps 750 mmHg 40%
    22:00 +27°C° 0 mm 2 mps 751 mmHg 44%
    23:00 +27°C° 0 mm 2 mps 751 mmHg 48%

    Tomorrow, 23 September, Saturday

    Time Temperature Precipitation Wind Pressure Humidity
    00:00 +26°C° 0 mm 1 mps 751 mmHg 52%
    01:00 +25°C° 0 mm 1 mps 751 mmHg 54%
    02:00 +25°C° 0 mm 1 mps 752 mmHg 55%
    03:00 +25°C° 0 mm 1 mps 752 mmHg 56%
    04:00 +24°C° 0 mm 1 mps 752 mmHg 56%
    05:00 +24°C° 0 mm 1 mps 752 mmHg 56%
    06:00 +24°C° 0 mm 1 mps 752 mmHg 56%
    07:00 +26°C° 0 mm 1 mps 753 mmHg 52%
    08:00 +28°C° 0 mm 1 mps 753 mmHg 47%
    09:00 +30°C° 0 mm 1 mps 753 mmHg 42%
    10:00 +31°C° 0 mm 2 mps 753 mmHg 38%
    11:00 +32°C° 0 mm 2 mps 752 mmHg 35%
    12:00 +35°C° 0 mm 3 mps 752 mmHg 31%
    13:00 +35°C° 0 mm 4 mps 752 mmHg 29%
    14:00 +36°C° 0 mm 4 mps 752 mmHg 28%
    15:00 +36°C° 0 mm 5 mps 752 mmHg 26%
    16:00 +35°C° 0 mm 5 mps 752 mmHg 27%
    17:00 +33°C° 0 mm 4 mps 752 mmHg 29%
    18:00 +32°C° 0 mm 4 mps 752 mmHg 30%
    19:00 +30°C° 0.1 mm 4 mps 753 mmHg 32%
    20:00 +29°C° 0.1 mm 4 mps 753 mmHg 34%
    21:00 +27°C° 0.1 mm 4 mps 754 mmHg 35%
    22:00 +27°C° 0 mm 4 mps 754 mmHg 38%
    23:00 +26°C° 0 mm 3 mps 754 mmHg 41%

    Day after tomorrow, 24 September, Sunday

    Time Temperature Precipitation Wind Pressure Humidity
    00:00 +25°C° 0 mm 3 mps 754 mmHg 43%
    01:00 +25°C° 0 mm 2 mps 754 mmHg 45%
    02:00 +24°C° 0 mm 2 mps 754 mmHg 47%
    03:00 +23°C° 0 mm 1 mps 754 mmHg 49%
    04:00 +23°C° 0 mm 1 mps 755 mmHg 50%
    05:00 +23°C° 0 mm 1 mps 755 mmHg 51%
    06:00 +22°C° 0 mm 1 mps 755 mmHg 53%
    07:00 +24°C° 0 mm 1 mps 755 mmHg 47%
    08:00 +26°C° 0 mm 1 mps 755 mmHg 42%
    09:00 +28°C° 0 mm 2 mps 755 mmHg 37%
    10:00 +29°C° 0 mm 2 mps 755 mmHg 34%
    11:00 +30°C° 0 mm 2 mps 755 mmHg 30%
    12:00 +31°C° 0 mm 3 mps 755 mmHg 27%
    13:00 +33°C° 0 mm 3 mps 754 mmHg 27%
    14:00 +33°C° 0 mm 3 mps 754 mmHg 26%
    15:00 +34°C° 0 mm 3 mps 754 mmHg 25%
    16:00 +33°C° 0 mm 3 mps 754 mmHg 28%
    17:00 +30°C° 0 mm 3 mps 755 mmHg 31%
    18:00 +29°C° 0 mm 3 mps 755 mmHg 33%
    19:00 +28°C° 0 mm 3 mps 755 mmHg 39%
    20:00 +27°C° 0 mm 4 mps 756 mmHg 44%
    21:00 +26°C° 0 mm 4 mps 756 mmHg 49%
    22:00 +25°C° 0 mm 4 mps 756 mmHg 53%
    23:00 +25°C° 0 mm 3 mps 756 mmHg 58%

    25 September, Monday

    Time Temperature Precipitation Wind Pressure Humidity
    00:00 +24°C° 0 mm 2 mps 756 mmHg 62%
    01:00 +23°C° 0 mm 2 mps 756 mmHg 64%
    02:00 +23°C° 0 mm 2 mps 756 mmHg 66%
    03:00 +22°C° 0 mm 1 mps 756 mmHg 69%
    04:00 +22°C° 0 mm 1 mps 756 mmHg 70%
    05:00 +22°C° 0 mm 1 mps 756 mmHg 72%
    06:00 +21°C° 0 mm 1 mps 756 mmHg 74%
    07:00 +23°C° 0 mm 1 mps 756 mmHg 66%
    08:00 +25°C° 0 mm 1 mps 756 mmHg 59%
    09:00 +27°C° 0 mm 1 mps 756 mmHg 52%
    10:00 +28°C° 0 mm 2 mps 756 mmHg 46%
    11:00 +29°C° 0 mm 2 mps 756 mmHg 41%
    12:00 +31°C° 0 mm 3 mps 756 mmHg 35%
    13:00 +31°C° 0 mm 3 mps 755 mmHg 34%
    14:00 +33°C° 0 mm 4 mps 755 mmHg 32%
    15:00 +33°C° 0 mm 4 mps 755 mmHg 31%
    16:00 +32°C° 0 mm 4 mps 755 mmHg 34%
    17:00 +30°C° 0 mm 4 mps 755 mmHg 37%
    18:00 +28°C° 0 mm 4 mps 756 mmHg 41%
    19:00 +27°C° 0 mm 5 mps 756 mmHg 45%
    20:00 +26°C° 0 mm 5 mps 756 mmHg 48%
    21:00 +24°C° 0 mm 6 mps 757 mmHg 52%
    22:00 +25°C° 0 mm 5 mps 757 mmHg 55%
    23:00 +23°C° 0 mm 5 mps 757 mmHg 59%

    26 September, Tuesday

    Time Temperature Precipitation Wind Pressure Humidity
    00:00 +22°C° 0 mm 4 mps 757 mmHg 62%
    01:00 +22°C° 0 mm 4 mps 757 mmHg 64%
    02:00 +21°C° 0 mm 3 mps 756 mmHg 66%
    03:00 +21°C° 0 mm 3 mps 756 mmHg 68%
    04:00 +20°C° 0 mm 3 mps 757 mmHg 69%
    05:00 +20°C° 0 mm 3 mps 757 mmHg 70%
    06:00 +20°C° 0 mm 2 mps 757 mmHg 72%
    07:00 +21°C° 0 mm 3 mps 757 mmHg 67%
    08:00 +22°C° 0 mm 3 mps 757 mmHg 63%
    09:00 +23°C° 0 mm 4 mps 757 mmHg 58%
    10:00 +25°C° 0 mm 4 mps 756 mmHg 56%
    11:00 +26°C° 0 mm 4 mps 756 mmHg 53%
    12:00 +26°C° 0 mm 4 mps 755 mmHg 51%
    13:00 +27°C° 0 mm 4 mps 755 mmHg 50%
    14:00 +27°C° 0 mm 4 mps 754 mmHg 49%
    15:00 +27°C° 0 mm 3 mps 754 mmHg 49%
    16:00 +26°C° 0 mm 3 mps 754 mmHg 52%
    17:00 +25°C° 0 mm 3 mps 754 mmHg 55%
    18:00 +24°C° 0 mm 3 mps 754 mmHg 58%
    19:00 +24°C° 0 mm 3 mps 754 mmHg 60%
    20:00 +24°C° 0 mm 3 mps 754 mmHg 62%
    21:00 +22°C° 0 mm 4 mps 754 mmHg 64%
    22:00 +22°C° 0 mm 3 mps 754 mmHg 66%
    23:00 +21°C° 0 mm 3 mps 754 mmHg 68%

    27 September, Wednesday

    Time Temperature Precipitation Wind Pressure Humidity
    00:00 +21°C° 0 mm 3 mps 754 mmHg 71%
    01:00 +21°C° 0 mm 2 mps 754 mmHg 71%
    02:00 +20°C° 0 mm 2 mps 754 mmHg 72%
    03:00 +20°C° 0 mm 2 mps 754 mmHg 72%
    04:00 +21°C° 0 mm 1 mps 754 mmHg 73%
    05:00 +21°C° 0 mm 1 mps 754 mmHg 73%
    06:00 +21°C° 0 mm 1 mps 754 mmHg 74%
    07:00 +20°C° 0.1 mm 2 mps 754 mmHg 73%
    08:00 +21°C° 0.1 mm 2 mps 754 mmHg 71%
    09:00 +21°C° 0.1 mm 2 mps 755 mmHg 70%
    10:00 +21°C° 0.1 mm 3 mps 755 mmHg 70%
    11:00 +21°C° 0.1 mm 3 mps 754 mmHg 71%
    12:00 +21°C° 0.1 mm 4 mps 754 mmHg 71%
    13:00 +21°C° 0 mm 4 mps 754 mmHg 71%
    14:00 +21°C° 0 mm 4 mps 754 mmHg 70%
    15:00 +21°C° 0 mm 4 mps 754 mmHg 69%
    16:00 +21°C° 0 mm 4 mps 755 mmHg 69%
    17:00 +20°C° 0 mm 3 mps 755 mmHg 69%
    18:00 +20°C° 0 mm 3 mps 755 mmHg 68%
    19:00 +20°C° 0 mm 3 mps 756 mmHg 68%
    20:00 +20°C° 0 mm 3 mps 756 mmHg 67%
    21:00 +20°C° 0 mm 3 mps 757 mmHg 66%
    22:00 +20°C° 0 mm 3 mps 757 mmHg 66%
    23:00 +19°C° 0 mm 3 mps 757 mmHg 66%
    Show more